Regional Weather Roundup
Issued by NWS

Home | Current Version | Previous Version | Text Only | Print | Product List | Glossary Off
Versions: 1 2 3 4 5 6 7 8 9 10 11 12 13 14 15 16 17 18 19 20 21 22 23 24 25 26 27 28 29 30 31 32 33 34 35 36 37 38 39 40 41 42 43 44 45 46 47 48 49 50

000
ASUS43 KMPX 282310
RWRMN
WEATHER ROUNDUP FOR MINNESOTA
NATIONAL WEATHER SERVICE TWIN CITIES/CHANHASSEN MN
600 PM CDT WED SEP 28 2016


NOTE: "FAIR" INDICATES FEW OR NO CLOUDS BELOW 12,000 FEET WITH NO
SIGNIFICANT WEATHER AND/OR OBSTRUCTIONS TO VISIBILITY. N/A MEANS
CURRENT SKY AND/OR WEATHER CONDITIONS ARE NOT AVAILABLE.

MNZ060>063-068>070-290000-
   Twin Cities Metro

CITY           SKY/WX    TMP DP  RH WIND       PRES   REMARKS
TWIN CITIES    CLOUDY    60  48  64 N16       30.28R
ST PAUL        CLOUDY    60  49  66 N13       30.29R
CRYSTAL        CLOUDY    60  47  61 N8        30.28R
BLAINE         CLOUDY    61  50  67 N10G17    30.29R
LAKEVILLE      MOCLDY    59  50  72 N14       30.27R
EDEN PRAIRIE   CLOUDY    61  48  62 N13       30.27R
LAKEVILLE      MOCLDY    59  50  72 N14       30.27R
SOUTH ST PAUL  CLOUDY    60  49  67 N8G17     30.27R
LAKE ELMO      CLOUDY    59  52  77 N10G16    30.28R
$$
MNZ001>005-007-008-013>017-022>024-027-028-290000-
   Northwest Minnesota

CITY           SKY/WX    TMP DP  RH WIND       PRES   REMARKS
BEMIDJI        CLOUDY    56  47  72 N5        30.35R
HALLOCK        SUNNY     61  48  63 CALM      30.36R
ROSEAU         CLOUDY    57  50  77 CALM      30.37R
WARROAD        PTCLDY    57  48  72 CALM      30.37R
THIEF RVR FALL CLOUDY    58  49  72 NE7       30.37
CROOKSTON      SUNNY     57  48  72 N3        30.36R
FOSSTON        CLOUDY    55  48  76 NE5       30.37R
DETROIT LAKES  PTSUNNY   61  46  59 E5        30.34R
MOORHEAD       SUNNY     63  46  55 NE7       30.34R
MAHNOMEN       CLOUDY    58  48  69 NE10      30.35R
$$
MNZ006-009>011-018-025>026-290000-
   North Central Minnesota

CITY           SKY/WX    TMP DP  RH WIND       PRES   REMARKS
FLAG ISLAND    CLOUDY    57  48  72 NW5       30.35S
INTL FALLS     CLOUDY    57  47  69 N7        30.35R
WASKISH        CLOUDY    57  48  72 CALM      30.36R
BIG FORK       CLOUDY    57  48  72 CALM      30.35R
GRAND RAPIDS   CLOUDY    57  48  72 N5        30.36R
ORR            CLOUDY    55  48  76 CALM      30.33R
COOK           CLOUDY    55  50  82 CALM      30.34R
WALKER         CLOUDY    55  46  70 NE3       30.35R
$$
MNZ012-019>021-037-290000-
   Northeast Minnesota

CITY           SKY/WX    TMP DP  RH WIND       PRES   REMARKS
DULUTH         CLOUDY    55  49  80 E5        30.33R
ELY            CLOUDY    55  48  76 CALM      30.34R
HIBBING        CLOUDY    56  48  74 CALM      30.33R
EVELETH        CLOUDY    58  48  71 CALM      30.34R
DULUTH HARBOR  CLOUDY    55  52  88 N3        30.33R
TWO HARBORS    MOCLDY    59  52  77 E3        30.31R
SILVER BAY     CLOUDY    57  50  77 CALM      30.31R
GRAND MARAIS     N/A     52  49  89 CALM      30.31R
G MARAIS ARPRT CLOUDY    54  46  76 N6        30.33R
$$
MNZ029>031-032-039>041-046>048-054>057-064-290000-
   West Central Minnesota

CITY           SKY/WX    TMP DP  RH WIND       PRES   REMARKS
FERGUS FALLS   SUNNY     61  46  59 E6        30.34R
WHEATON        SUNNY     64  48  55 NE7       30.34R
MORRIS         SUNNY     64  46  52 NE7       30.31R
ALEXANDRIA     PTSUNNY   61  46  57 NE7       30.33R
ELBOW LAKE     FAIR      60  47  61 E6        30.33R
WADENA         PTSUNNY   59  46  63 NE8       30.33R
GLENWOOD       PTSUNNY   61  48  63 NE8       30.32R
BENSON         MOSUNNY   63  45  51 E5        30.31R
ORTONVILLE     SUNNY     64  45  48 CALM      30.31R
MADISON        MOSUNNY   64  48  55 N7        30.31R
WILLMAR        FAIR      61  48  63 NE12      30.33R
$$
MNZ033>034-036-042>043-049>051-058-059-290000-
   Central Minnesota

CITY           SKY/WX    TMP DP  RH WIND       PRES   REMARKS
ST CLOUD       CLOUDY    59  48  67 N9        30.31R
SAUK CENTRE    CLOUDY    58  47  66 NE7       30.33R
PAYNESVILLE    CLOUDY    59  47  64 NE7       30.33R
AITKIN         CLOUDY    61  46  59 CALM      30.32R
PINE RIVER     CLOUDY    57  48  72 N5        30.36R
STAPLES        CLOUDY    57  45  62 NE3       30.34R
LONG PRAIRIE   CLOUDY    57  46  67 N6        30.33R
LITTLE FALLS   CLOUDY    57  45  62 CALM      30.33R
LITCHFIELD     CLOUDY    61  50  67 N8        30.31R
BUFFALO        CLOUDY    59  49  68 N6        30.32R
MAPLE LAKE     CLOUDY    60  51  72 NE6       30.32R
HUTCHINSON     CLOUDY    61  50  65 N8        30.31R
$$
MNZ037-044-045-052-053-290000-
   East Central Minnesota

CITY           SKY/WX    TMP DP  RH WIND       PRES   REMARKS
PRINCETON      CLOUDY    61  50  67 NE6       30.31R
MORA           CLOUDY    55  46  71 NE3       30.34R
CAMBRIDGE      CLOUDY    61  48  63 N6        30.29R
MOOSE LAKE     CLOUDY    55  48  76 NE3       30.31R
HINCKLEY       CLOUDY    57  50  77 NE3       30.32R
CLOQUET        CLOUDY    55  46  71 E5        30.33R
MCGREGOR       CLOUDY    57  46  67 N6        30.33R
$$
MNZ071>073-080-081-089-090-097-098-290000-
   Southwest Minnesota

CITY           SKY/WX    TMP DP  RH WIND       PRES   REMARKS
MONTEVIDEO     MOSUNNY   68  46  45 NE10      30.32R
GRANITE FALLS  MOSUNNY   65  49  56 NE7       30.31R
CANBY          MOSUNNY   62  49  61 NE3       30.32R
MARSHALL       PTSUNNY   63  47  55 N9        30.30R
REDWOOD FALLS  CLOUDY    64  46  52 NE8       30.29R
OLIVIA         CLOUDY    63  46  55 NE10      30.30R
PIPESTONE      SUNNY     61  45  55 NE6       30.31R
WINDOM         MOSUNNY   61  45  55 NE12      30.28R
WORTHINGTON    CLOUDY    60  48  64 N9        30.29R
JACKSON        CLOUDY    61  43  51 NE8       30.28R
TRACY          PTSUNNY   63  48  58 N10       30.29R
$$
MNZ065>067-074>077-082>085-091>093-290000-
   South Central Minnesota

CITY           SKY/WX    TMP DP  RH WIND       PRES   REMARKS
MANKATO        MOCLDY    60  48  64 N14       30.28R
ST JAMES       CLOUDY    61  46  59 N9        30.29R
FAIRMONT       PTSUNNY   62  48  60 N14G20    30.27R
GLENCOE        CLOUDY    60  52  74 N7        30.29R
FARIBAULT      CLOUDY    61  50  67 N9G17     30.27R
OWATONNA       CLOUDY    61  48  63 N13       30.25R
WASECA         MOCLDY    59  48  67 N14       30.27R
ALBERT LEA     MOCLDY    61  48  63 N8        30.24R
$$
MNZ078>079-086>088-094>096-290000-
   Southeast Minnesota

CITY           SKY/WX    TMP DP  RH WIND       PRES   REMARKS
ROCHESTER      CLOUDY    60  51  72 N13       30.23R
RED WING       CLOUDY    63  48  59 N9        30.23R
DODGE CENTER   MOCLDY    59  48  67 N8        30.24R
WINONA         CLOUDY    61  46  59 NE3       30.21R
AUSTIN         CLOUDY    59  48  67 N14G21    30.22R
PRESTON        MOCLDY    60  47  61 NE10      30.21R
$$
ABBREVIATIONS USED IN REMARKS
   TC - TEMPERATURES IN CELSIUS
  WCI - WIND CHILL INDEX
   HX - HEAT INDEX
  VSB - VISIBILITY
$$




USA.gov is the U.S. government's official web portal to all federal, state and local government web resources and services.